Location: Archemont
(49.1579°N, 1.7598°E)
Time: 10:32:43
(UTC+00:00)

Altair - Pass Details

Date: 26 April 2024
Orbit: 1501 x 1682 km, 47.2° (Epoch: 17 May)

Event Time Altitude Azimuth Distance (km) Brightness Sun altitude
Rises 16:57:08 0° 224° (SW) 4,925 10.8 19.1°
Reaches altitude 10° 17:00:25 10° 219° (SW) 3,937 10.3 18.6°
Maximum altitude 17:10:01 51° 148° (SSE) 2,023 8.2 17.0°
Drops below altitude 10° 17:19:25 10° 77° (ENE) 3,863 9.1 15.5°
Sets 17:22:36 0° 73° (ENE) 4,827 9.5 15.0°
